Time,TemperatureF,DewpointF,PressureIn,WindDirection,WindDirectionDegrees,WindSpeedMPH,WindSpeedGustMPH,Humidity,HourlyPrecipIn,Conditions,Clouds,dailyrainin,SoftwareType,DateUTC
2013-06-19 00:00:00,51.6,52.0,29.56,NNW,337,2.3,4.9,100,0.00,,,0.00,Rainwise IP-100,2013-06-19 04:00:00,
2013-06-19 00:01:00,51.6,52.0,29.56,NNW,337,2.1,4.9,100,0.00,,,0.00,Rainwise IP-100,2013-06-19 04:01:00,
2013-06-19 00:06:00,51.3,51.0,29.56,NNW,337,3.0,4.7,100,0.00,,,0.00,Rainwise IP-100,2013-06-19 04:06:00,
2013-06-19 00:11:00,51.3,51.0,29.57,NNW,337,3.0,4.0,100,0.00,,,0.00,Rainwise IP-100,2013-06-19 04:11:00,
2013-06-19 00:16:00,51.6,52.0,29.57,WNW,292,3.5,3.5,100,0.00,,,0.00,Rainwise IP-100,2013-06-19 04:16:00,
2013-06-19 00:21:00,51.7,52.0,29.57,North,360,0.0,3.5,100,0.00,,,0.00,Rainwise IP-100,2013-06-19 04:21:00,
2013-06-19 00:26:00,51.7,52.0,29.57,NW,315,0.0,4.0,100,0.00,,,0.00,Rainwise IP-100,2013-06-19 04:26:00,
2013-06-19 00:31:00,51.8,52.0,29.57,WNW,292,1.4,2.3,100,0.00,,,0.00,Rainwise IP-100,2013-06-19 04:31:00,
2013-06-19 00:36:00,51.8,52.0,29.57,NNW,337,1.2,4.7,100,0.00,,,0.00,Rainwise IP-100,2013-06-19 04:36:00,
2013-06-19 00:41:00,51.8,52.0,29.57,NNW,337,1.2,2.1,100,0.00,,,0.00,Rainwise IP-100,2013-06-19 04:41:00,
2013-06-19 00:46:00,51.9,52.0,29.57,WNW,292,0.0,1.6,100,0.00,,,0.00,Rainwise IP-100,2013-06-19 04:46:00,
2013-06-19 00:51:00,51.9,52.0,29.57,NNE,22,2.3,2.6,100,0.00,,,0.00,Rainwise IP-100,2013-06-19 04:51:00,
2013-06-19 00:57:00,51.8,52.0,29.57,NNW,337,4.2,4.4,100,0.00,,,0.00,Rainwise IP-100,2013-06-19 04:57:00,
2013-06-19 01:02:00,51.5,52.0,29.57,WNW,292,0.0,5.8,100,0.00,,,0.00,Rainwise IP-100,2013-06-19 05:02:00,
2013-06-19 01:07:00,51.3,51.0,29.57,NNE,22,2.3,2.3,100,0.00,,,0.00,Rainwise IP-100,2013-06-19 05:07:00,
2013-06-19 01:12:00,51.1,51.0,29.57,NNE,22,2.8,3.0,100,0.00,,,0.00,Rainwise IP-100,2013-06-19 05:12:00,
2013-06-19 01:17:00,50.8,51.0,29.57,NNW,337,2.1,4.2,100,0.00,,,0.00,Rainwise IP-100,2013-06-19 05:17:00,
2013-06-19 01:22:00,50.5,50.5,29.57,NW,315,2.3,6.1,100,0.00,,,0.00,Rainwise IP-100,2013-06-19 05:22:00,
2013-06-19 01:27:00,50.1,50.0,29.57,WNW,292,2.6,4.2,100,0.00,,,0.00,Rainwise IP-100,2013-06-19 05:27:00,
2013-06-19 01:32:00,50.0,50.0,29.56,NNW,337,4.9,4.9,100,0.00,,,0.00,Rainwise IP-100,2013-06-19 05:32:00,
2013-06-19 01:37:00,49.8,50.0,29.56,North,360,3.3,6.3,100,0.00,,,0.00,Rainwise IP-100,2013-06-19 05:37:00,
2013-06-19 01:42:00,49.7,50.0,29.57,NNW,337,3.7,4.4,100,0.00,,,0.00,Rainwise IP-100,2013-06-19 05:42:00,
2013-06-19 01:47:00,49.6,50.0,29.57,NNW,337,1.4,4.2,100,0.00,,,0.00,Rainwise IP-100,2013-06-19 05:47:00,
2013-06-19 01:52:00,49.5,50.0,29.57,NNW,337,2.3,2.8,100,0.00,,,0.00,Rainwise IP-100,2013-06-19 05:52:00,
2013-06-19 01:57:00,49.5,50.0,29.57,North,360,1.9,3.3,100,0.00,,,0.00,Rainwise IP-100,2013-06-19 05:57:00,
2013-06-19 02:02:00,49.3,49.0,29.56,NNE,22,2.8,5.1,100,0.00,,,0.00,Rainwise IP-100,2013-06-19 06:02:00,
2013-06-19 02:08:00,49.2,49.0,29.56,North,360,2.6,4.0,99,0.00,,,0.00,Rainwise IP-100,2013-06-19 06:08:00,
2013-06-19 02:13:00,49.1,49.0,29.56,NNW,337,3.3,5.1,99,0.00,,,0.00,Rainwise IP-100,2013-06-19 06:13:00,
2013-06-19 02:18:00,49.1,49.0,29.56,NW,315,2.1,5.1,99,0.00,,,0.00,Rainwise IP-100,2013-06-19 06:18:00,
2013-06-19 02:23:00,49.1,49.0,29.56,NNW,337,2.1,3.0,99,0.00,,,0.00,Rainwise IP-100,2013-06-19 06:23:00,
2013-06-19 02:28:00,49.0,49.0,29.56,NNE,22,0.0,3.0,99,0.00,,,0.00,Rainwise IP-100,2013-06-19 06:28:00,
2013-06-19 02:33:00,49.0,49.0,29.56,NW,315,1.6,3.3,99,0.00,,,0.00,Rainwise IP-100,2013-06-19 06:33:00,
2013-06-19 02:38:00,49.0,49.0,29.56,NW,315,0.0,2.1,99,0.00,,,0.00,Rainwise IP-100,2013-06-19 06:38:00,
2013-06-19 02:43:00,49.0,49.0,29.56,NNW,337,1.9,2.6,99,0.00,,,0.00,Rainwise IP-100,2013-06-19 06:43:00,
2013-06-19 02:48:00,49.0,49.0,29.56,NNW,337,0.0,2.8,99,0.00,,,0.00,Rainwise IP-100,2013-06-19 06:48:00,
2013-06-19 02:53:00,49.0,49.0,29.57,WNW,292,0.0,1.9,99,0.00,,,0.00,Rainwise IP-100,2013-06-19 06:53:00,
2013-06-19 02:58:00,49.1,49.0,29.57,WNW,292,1.2,0.0,99,0.00,,,0.00,Rainwise IP-100,2013-06-19 06:58:00,
2013-06-19 03:03:00,49.1,49.0,29.57,NW,315,0.0,2.1,100,0.00,,,0.00,Rainwise IP-100,2013-06-19 07:03:00,
2013-06-19 03:08:00,49.2,49.0,29.57,NW,315,1.6,1.9,100,0.00,,,0.00,Rainwise IP-100,2013-06-19 07:08:00,
2013-06-19 03:13:00,49.2,49.0,29.57,WNW,292,0.0,2.3,100,0.00,,,0.00,Rainwise IP-100,2013-06-19 07:13:00,
2013-06-19 03:18:00,49.2,49.0,29.56,NNW,337,1.4,1.6,100,0.00,,,0.00,Rainwise IP-100,2013-06-19 07:18:00,
2013-06-19 03:24:00,49.2,49.0,29.57,NNW,337,0.0,2.3,100,0.00,,,0.00,Rainwise IP-100,2013-06-19 07:24:00,
2013-06-19 03:29:00,49.2,49.0,29.57,NW,315,1.2,2.6,100,0.00,,,0.00,Rainwise IP-100,2013-06-19 07:29:00,
2013-06-19 03:34:00,49.1,49.0,29.57,NNW,337,2.6,2.6,100,0.00,,,0.00,Rainwise IP-100,2013-06-19 07:34:00,
2013-06-19 03:39:00,48.8,49.0,29.57,NNW,337,2.3,2.6,100,0.00,,,0.00,Rainwise IP-100,2013-06-19 07:39:00,
2013-06-19 03:44:00,48.6,49.0,29.57,NNW,337,2.3,3.3,100,0.00,,,0.00,Rainwise IP-100,2013-06-19 07:44:00,
2013-06-19 03:49:00,48.5,49.0,29.58,NNW,337,3.0,5.1,100,0.00,,,0.00,Rainwise IP-100,2013-06-19 07:49:00,
2013-06-19 03:54:00,48.2,48.0,29.58,NNW,337,3.0,4.4,100,0.00,,,0.00,Rainwise IP-100,2013-06-19 07:54:00,
2013-06-19 03:59:00,47.9,48.0,29.58,NW,315,3.0,3.5,100,0.00,,,0.00,Rainwise IP-100,2013-06-19 07:59:00,
2013-06-19 04:04:00,47.9,48.0,29.58,NNW,337,2.6,4.2,100,0.00,,,0.00,Rainwise IP-100,2013-06-19 08:04:00,
2013-06-19 04:09:00,48.0,48.0,29.58,NNW,337,2.1,2.8,100,0.00,,,0.00,Rainwise IP-100,2013-06-19 08:09:00,
2013-06-19 04:14:00,47.9,48.0,29.58,NNW,337,2.3,3.7,100,0.00,,,0.00,Rainwise IP-100,2013-06-19 08:14:00,
2013-06-19 04:19:00,47.6,47.5,29.58,NNE,22,3.0,3.5,100,0.00,,,0.00,Rainwise IP-100,2013-06-19 08:19:00,
2013-06-19 04:24:00,47.5,47.5,29.58,NNE,22,2.6,3.5,100,0.00,,,0.00,Rainwise IP-100,2013-06-19 08:24:00,
2013-06-19 04:29:00,47.4,47.5,29.58,WNW,292,1.2,4.2,100,0.00,,,0.00,Rainwise IP-100,2013-06-19 08:29:00,
2013-06-19 04:34:00,47.4,47.5,29.58,NNW,337,2.1,2.3,100,0.00,,,0.00,Rainwise IP-100,2013-06-19 08:34:00,
2013-06-19 04:40:00,47.3,47.5,29.59,North,360,2.3,3.3,100,0.00,,,0.00,Rainwise IP-100,2013-06-19 08:40:00,
2013-06-19 04:45:00,47.3,47.5,29.59,WNW,292,2.6,3.3,100,0.00,,,0.00,Rainwise IP-100,2013-06-19 08:45:00,
2013-06-19 04:50:00,47.3,47.5,29.59,NNE,22,2.1,3.5,100,0.00,,,0.00,Rainwise IP-100,2013-06-19 08:50:00,
2013-06-19 04:55:00,47.4,47.5,29.59,NNW,337,1.6,3.7,100,0.00,,,0.00,Rainwise IP-100,2013-06-19 08:55:00,
2013-06-19 05:00:00,47.4,47.5,29.59,NNE,22,3.0,3.5,100,0.00,,,0.00,Rainwise IP-100,2013-06-19 09:00:00,
2013-06-19 05:05:00,47.3,47.5,29.59,NNE,22,2.8,3.7,100,0.00,,,0.00,Rainwise IP-100,2013-06-19 09:05:00,
2013-06-19 05:10:00,47.1,47.0,29.59,North,360,2.6,4.0,100,0.00,,,0.00,Rainwise IP-100,2013-06-19 09:10:00,
2013-06-19 05:15:00,47.0,47.0,29.60,NW,315,2.3,3.3,100,0.00,,,0.00,Rainwise IP-100,2013-06-19 09:15:00,
2013-06-19 05:20:00,47.0,47.0,29.60,NNW,337,1.4,2.6,100,0.00,,,0.00,Rainwise IP-100,2013-06-19 09:20:00,
2013-06-19 05:25:00,47.1,47.0,29.60,NNW,337,0.0,2.8,100,0.00,,,0.00,Rainwise IP-100,2013-06-19 09:25:00,
2013-06-19 05:30:00,47.2,47.0,29.60,NNW,337,2.8,2.8,100,0.00,,,0.00,Rainwise IP-100,2013-06-19 09:30:00,
2013-06-19 05:35:00,47.2,47.0,29.60,NNW,337,2.8,4.7,100,0.00,,,0.00,Rainwise IP-100,2013-06-19 09:35:00,
2013-06-19 05:40:00,47.2,47.0,29.61,NNW,337,2.8,5.1,100,0.00,,,0.00,Rainwise IP-100,2013-06-19 09:40:00,
2013-06-19 05:45:00,47.1,47.0,29.61,NNW,337,2.8,4.0,100,0.00,,,0.00,Rainwise IP-100,2013-06-19 09:45:00,
2013-06-19 05:50:00,47.2,47.0,29.61,NNW,337,2.3,4.0,100,0.00,,,0.00,Rainwise IP-100,2013-06-19 09:50:00,
2013-06-19 05:56:00,47.2,47.0,29.61,North,360,1.9,3.0,100,0.00,,,0.00,Rainwise IP-100,2013-06-19 09:56:00,
2013-06-19 06:01:00,47.3,47.5,29.61,North,360,2.6,3.3,100,0.00,,,0.00,Rainwise IP-100,2013-06-19 10:01:00,
2013-06-19 06:06:00,47.2,47.0,29.61,NNW,337,0.0,3.5,100,0.00,,,0.00,Rainwise IP-100,2013-06-19 10:06:00,
2013-06-19 06:11:00,47.2,47.0,29.61,NNW,337,1.6,1.9,100,0.00,,,0.00,Rainwise IP-100,2013-06-19 10:11:00,
2013-06-19 06:16:00,47.3,47.5,29.61,North,360,0.0,2.3,100,0.00,,,0.00,Rainwise IP-100,2013-06-19 10:16:00,
2013-06-19 06:21:00,47.4,47.5,29.61,NNW,337,2.1,3.7,100,0.00,,,0.00,Rainwise IP-100,2013-06-19 10:21:00,
2013-06-19 06:26:00,47.5,47.5,29.61,NNW,337,1.9,3.3,100,0.00,,,0.00,Rainwise IP-100,2013-06-19 10:26:00,
2013-06-19 06:31:00,47.4,47.5,29.61,North,360,3.5,4.9,100,0.00,,,0.00,Rainwise IP-100,2013-06-19 10:31:00,
2013-06-19 06:36:00,47.3,47.5,29.61,NNW,337,4.7,4.7,100,0.00,,,0.00,Rainwise IP-100,2013-06-19 10:36:00,
2013-06-19 06:41:00,47.3,47.5,29.61,NNW,337,1.9,5.1,100,0.00,,,0.00,Rainwise IP-100,2013-06-19 10:41:00,
2013-06-19 06:46:00,47.3,47.5,29.61,NNW,337,2.8,4.0,100,0.00,,,0.00,Rainwise IP-100,2013-06-19 10:46:00,
2013-06-19 06:51:00,47.5,47.5,29.61,NNW,337,0.0,3.5,100,0.00,,,0.00,Rainwise IP-100,2013-06-19 10:51:00,
2013-06-19 06:56:00,47.8,48.0,29.61,WNW,292,1.2,2.8,100,0.00,,,0.00,Rainwise IP-100,2013-06-19 10:56:00,
2013-06-19 07:01:00,48.0,48.0,29.61,NNW,337,1.9,2.1,100,0.00,,,0.00,Rainwise IP-100,2013-06-19 11:01:00,
2013-06-19 07:06:00,48.3,48.0,29.61,NNW,337,0.0,2.6,100,0.00,,,0.00,Rainwise IP-100,2013-06-19 11:06:00,
2013-06-19 07:12:00,48.7,49.0,29.62,North,360,2.1,2.6,100,0.00,,,0.00,Rainwise IP-100,2013-06-19 11:12:00,
2013-06-19 07:17:00,48.9,49.0,29.62,NNE,22,1.9,3.3,100,0.00,,,0.00,Rainwise IP-100,2013-06-19 11:17:00,
2013-06-19 07:22:00,49.0,49.0,29.62,NNE,22,2.1,3.0,100,0.00,,,0.00,Rainwise IP-100,2013-06-19 11:22:00,
2013-06-19 07:27:00,49.1,49.0,29.62,North,360,1.4,3.7,100,0.00,,,0.00,Rainwise IP-100,2013-06-19 11:27:00,
2013-06-19 07:32:00,49.3,49.0,29.62,WNW,292,0.0,2.1,100,0.00,,,0.00,Rainwise IP-100,2013-06-19 11:32:00,
2013-06-19 07:37:00,49.5,50.0,29.62,NNW,337,2.1,3.3,100,0.00,,,0.00,Rainwise IP-100,2013-06-19 11:37:00,
2013-06-19 07:42:00,50.0,50.0,29.62,North,360,1.2,2.8,100,0.00,,,0.00,Rainwise IP-100,2013-06-19 11:42:00,
2013-06-19 07:47:00,50.1,50.0,29.62,NNW,337,2.3,5.6,100,0.00,,,0.00,Rainwise IP-100,2013-06-19 11:47:00,
2013-06-19 07:52:00,49.8,50.0,29.63,ENE,67,2.8,4.4,100,0.00,,,0.00,Rainwise IP-100,2013-06-19 11:52:00,
2013-06-19 07:57:00,49.9,50.0,29.63,NNE,22,1.4,4.7,100,0.00,,,0.00,Rainwise IP-100,2013-06-19 11:57:00,
2013-06-19 08:02:00,50.3,50.5,29.63,ENE,67,0.0,4.4,100,0.00,,,0.00,Rainwise IP-100,2013-06-19 12:02:00,
2013-06-19 08:07:00,51.3,51.0,29.63,NNE,22,1.6,3.5,100,0.00,,,0.00,Rainwise IP-100,2013-06-19 12:07:00,
2013-06-19 08:12:00,52.8,53.0,29.63,NE,45,1.9,2.6,100,0.00,,,0.00,Rainwise IP-100,2013-06-19 12:12:00,
2013-06-19 08:17:00,52.7,53.0,29.63,ENE,67,2.1,3.5,100,0.00,,,0.00,Rainwise IP-100,2013-06-19 12:17:00,
2013-06-19 08:22:00,53.2,53.0,29.63,ENE,67,2.1,3.5,100,0.00,,,0.00,Rainwise IP-100,2013-06-19 12:22:00,
2013-06-19 08:28:00,54.7,54.5,29.63,NE,45,2.1,3.7,100,0.00,,,0.00,Rainwise IP-100,2013-06-19 12:28:00,
2013-06-19 08:33:00,55.4,55.0,29.64,ENE,67,0.0,3.5,100,0.00,,,0.00,Rainwise IP-100,2013-06-19 12:33:00,
2013-06-19 08:38:00,57.0,57.0,29.64,WSW,247,0.0,3.3,100,0.00,,,0.00,Rainwise IP-100,2013-06-19 12:38:00,
2013-06-19 08:43:00,57.6,57.5,29.63,NE,45,1.4,4.0,100,0.00,,,0.00,Rainwise IP-100,2013-06-19 12:43:00,
2013-06-19 08:48:00,57.8,58.0,29.63,NNE,22,2.3,3.3,100,0.00,,,0.00,Rainwise IP-100,2013-06-19 12:48:00,
2013-06-19 08:53:00,59.8,60.0,29.63,ESE,112,1.2,2.8,100,0.00,,,0.00,Rainwise IP-100,2013-06-19 12:53:00,
2013-06-19 08:58:00,61.2,61.0,29.63,ENE,67,1.2,2.3,100,0.00,,,0.00,Rainwise IP-100,2013-06-19 12:58:00,
2013-06-19 09:03:00,61.2,61.0,29.63,NE,45,2.1,3.0,100,0.00,,,0.00,Rainwise IP-100,2013-06-19 13:03:00,
2013-06-19 09:08:00,60.5,60.5,29.63,NNE,22,1.4,4.0,100,0.00,,,0.00,Rainwise IP-100,2013-06-19 13:08:00,
2013-06-19 09:13:00,61.4,61.5,29.64,ENE,67,0.0,2.8,100,0.00,,,0.00,Rainwise IP-100,2013-06-19 13:13:00,
2013-06-19 09:18:00,61.7,61.5,29.64,NNE,22,2.1,2.6,100,0.00,,,0.00,Rainwise IP-100,2013-06-19 13:18:00,
2013-06-19 09:23:00,61.0,61.0,29.63,NE,45,0.0,3.3,100,0.00,,,0.00,Rainwise IP-100,2013-06-19 13:23:00,
2013-06-19 09:28:00,61.6,61.5,29.64,NNW,337,0.0,2.8,100,0.00,,,0.00,Rainwise IP-100,2013-06-19 13:28:00,
2013-06-19 09:33:00,61.2,61.0,29.63,NNE,22,2.1,4.0,100,0.00,,,0.00,Rainwise IP-100,2013-06-19 13:33:00,
2013-06-19 09:39:00,61.5,61.5,29.63,ENE,67,2.6,4.0,100,0.00,,,0.00,Rainwise IP-100,2013-06-19 13:39:00,
2013-06-19 09:44:00,61.4,61.5,29.63,East,90,1.6,4.4,100,0.00,,,0.00,Rainwise IP-100,2013-06-19 13:44:00,
2013-06-19 09:49:00,60.6,60.5,29.63,SSE,157,1.4,3.5,100,0.00,,,0.00,Rainwise IP-100,2013-06-19 13:49:00,
2013-06-19 09:54:00,61.6,61.5,29.63,SSE,157,1.4,4.4,100,0.00,,,0.00,Rainwise IP-100,2013-06-19 13:54:00,
2013-06-19 09:59:00,61.7,61.5,29.63,SSE,157,4.2,5.1,100,0.00,,,0.00,Rainwise IP-100,2013-06-19 13:59:00,
2013-06-19 10:04:00,61.4,61.0,29.63,SSE,157,3.0,4.0,99,0.00,,,0.00,Rainwise IP-100,2013-06-19 14:04:00,
2013-06-19 10:09:00,62.2,61.5,29.63,SSW,202,2.6,4.0,98,0.00,,,0.00,Rainwise IP-100,2013-06-19 14:09:00,
2013-06-19 10:14:00,63.1,62.0,29.63,West,270,0.0,4.9,96,0.00,,,0.00,Rainwise IP-100,2013-06-19 14:14:00,
2013-06-19 10:19:00,64.0,62.5,29.63,NW,315,0.0,3.3,95,0.00,,,0.00,Rainwise IP-100,2013-06-19 14:19:00,
2013-06-19 10:24:00,64.4,62.0,29.63,SSE,157,3.0,4.9,92,0.00,,,0.00,Rainwise IP-100,2013-06-19 14:24:00,
2013-06-19 10:29:00,64.0,60.0,29.63,South,180,2.8,4.2,87,0.00,,,0.00,Rainwise IP-100,2013-06-19 14:29:00,
2013-06-19 10:34:00,63.4,57.0,29.63,SSW,202,2.6,6.1,80,0.00,,,0.00,Rainwise IP-100,2013-06-19 14:34:00,
2013-06-19 10:39:00,63.4,56.5,29.63,NE,45,1.9,3.0,78,0.00,,,0.00,Rainwise IP-100,2013-06-19 14:39:00,
2013-06-19 10:44:00,63.8,57.0,29.63,SW,225,1.6,2.8,78,0.00,,,0.00,Rainwise IP-100,2013-06-19 14:44:00,
2013-06-19 10:49:00,64.0,57.0,29.63,WNW,292,0.0,3.5,78,0.00,,,0.00,Rainwise IP-100,2013-06-19 14:49:00,
2013-06-19 10:55:00,64.0,56.5,29.63,NNE,22,2.6,4.7,76,0.00,,,0.00,Rainwise IP-100,2013-06-19 14:55:00,
2013-06-19 11:00:00,64.0,55.0,29.63,ESE,112,1.4,2.6,73,0.00,,,0.00,Rainwise IP-100,2013-06-19 15:00:00,
2013-06-19 11:05:00,63.9,54.0,29.64,NE,45,2.6,2.8,70,0.00,,,0.00,Rainwise IP-100,2013-06-19 15:05:00,
2013-06-19 11:10:00,63.3,53.0,29.64,ESE,112,1.9,3.3,67,0.00,,,0.00,Rainwise IP-100,2013-06-19 15:10:00,
2013-06-19 11:15:00,63.5,51.0,29.64,ESE,112,2.6,3.0,65,0.00,,,0.00,Rainwise IP-100,2013-06-19 15:15:00,
2013-06-19 11:20:00,64.1,51.0,29.64,SSW,202,1.2,3.7,64,0.00,,,0.00,Rainwise IP-100,2013-06-19 15:20:00,
2013-06-19 11:25:00,64.9,51.0,29.64,NNE,22,0.0,2.1,62,0.00,,,0.00,Rainwise IP-100,2013-06-19 15:25:00,
2013-06-19 11:30:00,65.6,51.0,29.64,ESE,112,1.6,3.7,60,0.00,,,0.00,Rainwise IP-100,2013-06-19 15:30:00,
2013-06-19 11:35:00,65.5,51.0,29.64,NNW,337,1.9,3.7,61,0.00,,,0.00,Rainwise IP-100,2013-06-19 15:35:00,
2013-06-19 11:40:00,65.4,51.0,29.64,ENE,67,3.0,5.4,60,0.00,,,0.00,Rainwise IP-100,2013-06-19 15:40:00,
2013-06-19 11:45:00,65.4,50.0,29.63,ENE,67,1.6,4.2,57,0.00,,,0.00,Rainwise IP-100,2013-06-19 15:45:00,
2013-06-19 11:50:00,65.8,49.0,29.64,North,360,4.4,4.7,55,0.00,,,0.00,Rainwise IP-100,2013-06-19 15:50:00,
2013-06-19 11:55:00,66.4,48.0,29.63,ESE,112,1.6,4.9,52,0.00,,,0.00,Rainwise IP-100,2013-06-19 15:55:00,
2013-06-19 12:00:00,66.7,47.0,29.64,ENE,67,5.1,10.3,49,0.00,,,0.00,Rainwise IP-100,2013-06-19 16:00:00,
2013-06-19 12:05:00,66.6,47.0,29.63,NNE,22,4.9,8.2,48,0.00,,,0.00,Rainwise IP-100,2013-06-19 16:05:00,
2013-06-19 12:11:00,67.0,46.0,29.64,WSW,247,1.6,5.4,47,0.00,,,0.00,Rainwise IP-100,2013-06-19 16:11:00,
2013-06-19 12:16:00,67.1,46.0,29.63,NNE,22,2.6,6.5,46,0.00,,,0.00,Rainwise IP-100,2013-06-19 16:16:00,
2013-06-19 12:21:00,66.3,44.0,29.64,NNE,22,4.0,6.3,44,0.00,,,0.00,Rainwise IP-100,2013-06-19 16:21:00,
2013-06-19 12:26:00,66.4,44.0,29.63,North,360,2.3,5.8,44,0.00,,,0.00,Rainwise IP-100,2013-06-19 16:26:00,
2013-06-19 12:31:00,67.5,45.0,29.63,NNW,337,9.3,9.3,44,0.00,,,0.00,Rainwise IP-100,2013-06-19 16:31:00,
2013-06-19 12:36:00,68.0,45.0,29.63,NNE,22,5.1,13.3,43,0.00,,,0.00,Rainwise IP-100,2013-06-19 16:36:00,
2013-06-19 12:41:00,67.7,44.0,29.63,NNE,22,8.6,10.5,43,0.00,,,0.00,Rainwise IP-100,2013-06-19 16:41:00,
2013-06-19 12:46:00,67.3,45.0,29.63,ESE,112,4.2,11.0,44,0.00,,,0.00,Rainwise IP-100,2013-06-19 16:46:00,
2013-06-19 12:51:00,67.5,45.0,29.64,ENE,67,1.9,11.7,44,0.00,,,0.00,Rainwise IP-100,2013-06-19 16:51:00,
2013-06-19 12:56:00,67.6,44.0,29.63,WNW,292,0.0,8.4,43,0.00,,,0.00,Rainwise IP-100,2013-06-19 16:56:00,
2013-06-19 13:01:00,67.4,44.0,29.63,ENE,67,0.0,4.7,43,0.00,,,0.00,Rainwise IP-100,2013-06-19 17:01:00,
2013-06-19 13:06:00,68.0,45.0,29.64,NNE,22,4.0,8.9,43,0.00,,,0.00,Rainwise IP-100,2013-06-19 17:06:00,
2013-06-19 13:11:00,68.4,44.0,29.63,WNW,292,0.0,10.3,42,0.00,,,0.00,Rainwise IP-100,2013-06-19 17:11:00,
2013-06-19 13:16:00,69.1,45.0,29.63,SSW,202,3.0,4.9,42,0.00,,,0.00,Rainwise IP-100,2013-06-19 17:16:00,
2013-06-19 13:21:00,69.5,45.0,29.63,NNW,337,4.0,5.1,41,0.00,,,0.00,Rainwise IP-100,2013-06-19 17:21:00,
2013-06-19 13:27:00,69.3,44.0,29.63,NNE,22,4.2,12.4,40,0.00,,,0.00,Rainwise IP-100,2013-06-19 17:27:00,
2013-06-19 13:32:00,68.6,43.0,29.63,ENE,67,6.3,11.9,40,0.00,,,0.00,Rainwise IP-100,2013-06-19 17:32:00,
2013-06-19 13:37:00,68.1,43.0,29.63,NNE,22,11.7,17.0,41,0.00,,,0.00,Rainwise IP-100,2013-06-19 17:37:00,
2013-06-19 13:42:00,68.0,43.0,29.63,NNE,22,2.3,12.4,40,0.00,,,0.00,Rainwise IP-100,2013-06-19 17:42:00,
2013-06-19 13:47:00,68.5,43.0,29.63,NNW,337,0.0,7.5,40,0.00,,,0.00,Rainwise IP-100,2013-06-19 17:47:00,
2013-06-19 13:52:00,69.2,43.0,29.63,NNE,22,2.8,10.3,39,0.00,,,0.00,Rainwise IP-100,2013-06-19 17:52:00,
2013-06-19 13:57:00,69.4,43.0,29.63,North,360,1.4,6.1,39,0.00,,,0.00,Rainwise IP-100,2013-06-19 17:57:00,
2013-06-19 14:02:00,69.5,43.0,29.62,ENE,67,2.8,6.1,39,0.00,,,0.00,Rainwise IP-100,2013-06-19 18:02:00,
2013-06-19 14:07:00,69.7,43.0,29.62,NNE,22,6.1,8.6,39,0.00,,,0.00,Rainwise IP-100,2013-06-19 18:07:00,
2013-06-19 14:12:00,69.3,42.0,29.62,NNE,22,4.9,10.5,38,0.00,,,0.00,Rainwise IP-100,2013-06-19 18:12:00,
2013-06-19 14:17:00,69.2,42.0,29.63,NW,315,1.9,8.9,38,0.00,,,0.00,Rainwise IP-100,2013-06-19 18:17:00,
2013-06-19 14:22:00,69.8,43.0,29.62,NNW,337,0.0,4.9,38,0.00,,,0.00,Rainwise IP-100,2013-06-19 18:22:00,
2013-06-19 14:27:00,70.0,42.0,29.62,NNE,22,9.8,9.8,37,0.00,,,0.00,Rainwise IP-100,2013-06-19 18:27:00,
2013-06-19 14:32:00,69.9,42.0,29.62,NNE,22,10.0,11.2,37,0.00,,,0.00,Rainwise IP-100,2013-06-19 18:32:00,
2013-06-19 14:37:00,69.2,42.0,29.63,North,360,3.5,10.3,37,0.00,,,0.00,Rainwise IP-100,2013-06-19 18:37:00,
2013-06-19 14:43:00,68.8,42.0,29.63,NNE,22,3.0,7.2,38,0.00,,,0.00,Rainwise IP-100,2013-06-19 18:43:00,
2013-06-19 14:48:00,69.0,42.0,29.62,NE,45,7.2,11.4,38,0.00,,,0.00,Rainwise IP-100,2013-06-19 18:48:00,
2013-06-19 14:53:00,69.1,41.0,29.63,North,360,0.0,7.7,37,0.00,,,0.00,Rainwise IP-100,2013-06-19 18:53:00,
2013-06-19 14:58:00,69.7,41.0,29.63,ENE,67,0.0,4.0,36,0.00,,,0.00,Rainwise IP-100,2013-06-19 18:58:00,
2013-06-19 15:03:00,70.9,43.0,29.62,NW,315,1.6,4.4,37,0.00,,,0.00,Rainwise IP-100,2013-06-19 19:03:00,
2013-06-19 15:08:00,71.7,43.0,29.62,SSW,202,2.8,8.4,36,0.00,,,0.00,Rainwise IP-100,2013-06-19 19:08:00,
2013-06-19 15:13:00,72.4,43.0,29.62,ESE,112,2.6,5.8,35,0.00,,,0.00,Rainwise IP-100,2013-06-19 19:13:00,
2013-06-19 15:18:00,71.9,43.0,29.62,ENE,67,4.0,6.1,35,0.00,,,0.00,Rainwise IP-100,2013-06-19 19:18:00,
2013-06-19 15:23:00,71.0,42.0,29.61,NNE,22,4.4,11.9,35,0.00,,,0.00,Rainwise IP-100,2013-06-19 19:23:00,
2013-06-19 15:28:00,71.3,43.0,29.62,NNE,22,6.3,9.1,36,0.00,,,0.00,Rainwise IP-100,2013-06-19 19:28:00,
2013-06-19 15:33:00,71.0,42.0,29.62,ENE,67,4.0,14.5,36,0.00,,,0.00,Rainwise IP-100,2013-06-19 19:33:00,
2013-06-19 15:38:00,70.5,42.0,29.62,NNE,22,4.0,11.0,36,0.00,,,0.00,Rainwise IP-100,2013-06-19 19:38:00,
2013-06-19 15:43:00,71.1,42.0,29.62,NNW,337,5.8,15.2,36,0.00,,,0.00,Rainwise IP-100,2013-06-19 19:43:00,
2013-06-19 15:48:00,71.7,42.0,29.62,NNW,337,6.1,13.1,35,0.00,,,0.00,Rainwise IP-100,2013-06-19 19:48:00,
2013-06-19 15:53:00,71.8,42.0,29.63,NNE,22,5.8,9.6,35,0.00,,,0.00,Rainwise IP-100,2013-06-19 19:53:00,
2013-06-19 15:59:00,70.8,42.0,29.63,NNW,337,1.6,7.9,36,0.00,,,0.00,Rainwise IP-100,2013-06-19 19:59:00,
2013-06-19 16:04:00,70.2,42.0,29.62,NNE,22,1.2,8.4,36,0.00,,,0.00,Rainwise IP-100,2013-06-19 20:04:00,
2013-06-19 16:09:00,70.7,42.0,29.63,NNW,337,7.0,8.2,36,0.00,,,0.00,Rainwise IP-100,2013-06-19 20:09:00,
2013-06-19 16:14:00,71.1,42.0,29.63,NNE,22,3.5,9.1,35,0.00,,,0.00,Rainwise IP-100,2013-06-19 20:14:00,
2013-06-19 16:19:00,71.3,42.0,29.63,NNE,22,4.2,11.7,35,0.00,,,0.00,Rainwise IP-100,2013-06-19 20:19:00,
2013-06-19 16:24:00,70.9,42.0,29.63,NNE,22,4.7,8.2,35,0.00,,,0.00,Rainwise IP-100,2013-06-19 20:24:00,
2013-06-19 16:29:00,70.9,42.0,29.63,NNW,337,8.6,11.7,35,0.00,,,0.00,Rainwise IP-100,2013-06-19 20:29:00,
2013-06-19 16:34:00,71.3,42.0,29.62,NNE,22,4.7,11.0,35,0.00,,,0.00,Rainwise IP-100,2013-06-19 20:34:00,
2013-06-19 16:39:00,71.1,42.0,29.62,North,360,8.2,8.2,35,0.00,,,0.00,Rainwise IP-100,2013-06-19 20:39:00,
2013-06-19 16:44:00,71.0,42.0,29.63,NNE,22,5.6,9.3,35,0.00,,,0.00,Rainwise IP-100,2013-06-19 20:44:00,
2013-06-19 16:49:00,71.2,42.0,29.62,North,360,2.1,10.7,35,0.00,,,0.00,Rainwise IP-100,2013-06-19 20:49:00,
2013-06-19 16:54:00,71.7,42.0,29.63,NNW,337,2.1,6.5,35,0.00,,,0.00,Rainwise IP-100,2013-06-19 20:54:00,
2013-06-19 16:59:00,71.9,42.0,29.63,NNE,22,5.1,9.3,34,0.00,,,0.00,Rainwise IP-100,2013-06-19 20:59:00,
2013-06-19 17:04:00,71.8,42.0,29.62,NW,315,7.9,7.9,34,0.00,,,0.00,Rainwise IP-100,2013-06-19 21:04:00,
2013-06-19 17:09:00,71.9,42.0,29.63,NNW,337,11.2,11.2,34,0.00,,,0.00,Rainwise IP-100,2013-06-19 21:09:00,
2013-06-19 17:15:00,71.8,42.0,29.63,NNW,337,0.0,12.6,34,0.00,,,0.00,Rainwise IP-100,2013-06-19 21:15:00,
2013-06-19 17:20:00,71.5,42.0,29.63,North,360,4.9,8.4,34,0.00,,,0.00,Rainwise IP-100,2013-06-19 21:20:00,
2013-06-19 17:25:00,71.7,42.0,29.63,WNW,292,4.0,5.1,34,0.00,,,0.00,Rainwise IP-100,2013-06-19 21:25:00,
2013-06-19 17:30:00,72.2,42.0,29.63,NNE,22,5.8,7.2,34,0.00,,,0.00,Rainwise IP-100,2013-06-19 21:30:00,
2013-06-19 17:35:00,72.2,41.0,29.63,NNW,337,4.9,8.2,33,0.00,,,0.00,Rainwise IP-100,2013-06-19 21:35:00,
2013-06-19 17:40:00,71.6,41.0,29.63,NNE,22,8.6,11.2,33,0.00,,,0.00,Rainwise IP-100,2013-06-19 21:40:00,
2013-06-19 17:45:00,71.2,41.0,29.63,NNW,337,6.1,11.4,34,0.00,,,0.00,Rainwise IP-100,2013-06-19 21:45:00,
2013-06-19 17:50:00,71.1,41.0,29.64,NNE,22,4.2,6.8,34,0.00,,,0.00,Rainwise IP-100,2013-06-19 21:50:00,
2013-06-19 17:55:00,71.0,41.0,29.64,NNW,337,2.8,8.4,34,0.00,,,0.00,Rainwise IP-100,2013-06-19 21:55:00,
2013-06-19 18:00:00,71.0,41.0,29.63,NNW,337,3.3,9.1,34,0.00,,,0.00,Rainwise IP-100,2013-06-19 22:00:00,
2013-06-19 18:05:00,71.3,40.0,29.63,North,360,4.9,9.8,33,0.00,,,0.00,Rainwise IP-100,2013-06-19 22:05:00,
2013-06-19 18:10:00,71.3,40.0,29.64,WSW,247,1.9,8.6,33,0.00,,,0.00,Rainwise IP-100,2013-06-19 22:10:00,
2013-06-19 18:15:00,71.1,40.0,29.64,NNE,22,6.1,11.4,33,0.00,,,0.00,Rainwise IP-100,2013-06-19 22:15:00,
2013-06-19 18:20:00,70.7,40.0,29.64,NNW,337,2.1,10.3,33,0.00,,,0.00,Rainwise IP-100,2013-06-19 22:20:00,
2013-06-19 18:25:00,70.6,40.0,29.64,NNE,22,3.7,8.9,33,0.00,,,0.00,Rainwise IP-100,2013-06-19 22:25:00,
2013-06-19 18:31:00,70.6,41.0,29.64,NNW,337,3.5,6.1,34,0.00,,,0.00,Rainwise IP-100,2013-06-19 22:31:00,
2013-06-19 18:36:00,70.4,41.0,29.64,NNW,337,4.9,7.5,35,0.00,,,0.00,Rainwise IP-100,2013-06-19 22:36:00,
2013-06-19 18:41:00,70.1,41.0,29.65,North,360,4.7,6.5,35,0.00,,,0.00,Rainwise IP-100,2013-06-19 22:41:00,
2013-06-19 18:46:00,69.6,41.0,29.65,NNW,337,3.3,10.7,35,0.00,,,0.00,Rainwise IP-100,2013-06-19 22:46:00,
2013-06-19 18:51:00,69.0,41.0,29.65,NNW,337,2.8,7.2,36,0.00,,,0.00,Rainwise IP-100,2013-06-19 22:51:00,
2013-06-19 18:56:00,68.6,41.0,29.65,NNW,337,3.7,6.8,37,0.00,,,0.00,Rainwise IP-100,2013-06-19 22:56:00,
2013-06-19 19:01:00,68.2,41.0,29.65,NNE,22,7.2,7.9,38,0.00,,,0.00,Rainwise IP-100,2013-06-19 23:01:00,
2013-06-19 19:06:00,67.9,42.0,29.66,NNE,22,4.0,9.1,39,0.00,,,0.00,Rainwise IP-100,2013-06-19 23:06:00,
2013-06-19 19:11:00,67.5,43.0,29.66,West,270,0.0,7.0,41,0.00,,,0.00,Rainwise IP-100,2013-06-19 23:11:00,
2013-06-19 19:16:00,67.2,42.0,29.66,NNW,337,1.6,4.9,41,0.00,,,0.00,Rainwise IP-100,2013-06-19 23:16:00,
2013-06-19 19:21:00,66.9,43.0,29.66,NNE,22,0.0,4.7,42,0.00,,,0.00,Rainwise IP-100,2013-06-19 23:21:00,
2013-06-19 19:26:00,66.7,43.0,29.66,ENE,67,0.0,7.7,43,0.00,,,0.00,Rainwise IP-100,2013-06-19 23:26:00,
2013-06-19 19:31:00,66.4,44.0,29.66,West,270,2.3,5.4,44,0.00,,,0.00,Rainwise IP-100,2013-06-19 23:31:00,
2013-06-19 19:36:00,66.2,44.0,29.66,NNE,22,2.6,4.7,44,0.00,,,0.00,Rainwise IP-100,2013-06-19 23:36:00,
2013-06-19 19:41:00,66.0,44.0,29.67,ENE,67,1.4,3.0,45,0.00,,,0.00,Rainwise IP-100,2013-06-19 23:41:00,
2013-06-19 19:47:00,65.6,44.0,29.67,NNE,22,1.9,2.6,46,0.00,,,0.00,Rainwise IP-100,2013-06-19 23:47:00,
2013-06-19 19:52:00,65.2,44.0,29.67,NNE,22,3.7,4.0,46,0.00,,,0.00,Rainwise IP-100,2013-06-19 23:52:00,
2013-06-19 19:57:00,64.9,44.0,29.67,ESE,112,0.0,7.5,47,0.00,,,0.00,Rainwise IP-100,2013-06-19 23:57:00,
2013-06-19 20:02:00,64.6,44.0,29.67,NNW,337,0.0,3.0,48,0.00,,,0.00,Rainwise IP-100,2013-06-20 00:02:00,
2013-06-19 20:07:00,64.2,44.0,29.68,NNE,22,0.0,2.1,49,0.00,,,0.00,Rainwise IP-100,2013-06-20 00:07:00,
2013-06-19 20:12:00,63.7,45.0,29.68,NNE,22,1.6,2.3,50,0.00,,,0.00,Rainwise IP-100,2013-06-20 00:12:00,
2013-06-19 20:17:00,63.1,45.0,29.68,NNE,22,1.4,3.0,52,0.00,,,0.00,Rainwise IP-100,2013-06-20 00:17:00,
2013-06-19 20:22:00,62.5,45.0,29.68,NNW,337,3.0,6.1,53,0.00,,,0.00,Rainwise IP-100,2013-06-20 00:22:00,
2013-06-19 20:27:00,62.2,45.0,29.68,North,360,2.3,4.0,54,0.00,,,0.00,Rainwise IP-100,2013-06-20 00:27:00,
2013-06-19 20:32:00,61.8,46.0,29.69,NNW,337,3.3,3.7,55,0.00,,,0.00,Rainwise IP-100,2013-06-20 00:32:00,
2013-06-19 20:37:00,61.3,46.0,29.68,NNW,337,1.9,3.5,57,0.00,,,0.00,Rainwise IP-100,2013-06-20 00:37:00,
2013-06-19 20:42:00,61.0,46.0,29.69,NNW,337,1.9,3.5,58,0.00,,,0.00,Rainwise IP-100,2013-06-20 00:42:00,
2013-06-19 20:47:00,60.7,46.0,29.69,NNE,22,1.9,3.3,59,0.00,,,0.00,Rainwise IP-100,2013-06-20 00:47:00,
2013-06-19 20:52:00,60.3,47.0,29.69,NNW,337,0.0,2.8,60,0.00,,,0.00,Rainwise IP-100,2013-06-20 00:52:00,
2013-06-19 20:57:00,59.8,47.0,29.69,West,270,0.0,1.9,61,0.00,,,0.00,Rainwise IP-100,2013-06-20 00:57:00,
2013-06-19 21:03:00,59.4,47.0,29.70,NE,45,1.4,1.6,62,0.00,,,0.00,Rainwise IP-100,2013-06-20 01:03:00,
2013-06-19 21:08:00,59.0,47.0,29.70,NE,45,0.0,1.9,63,0.00,,,0.00,Rainwise IP-100,2013-06-20 01:08:00,
2013-06-19 21:13:00,58.5,47.5,29.71,NE,45,0.0,1.2,65,0.00,,,0.00,Rainwise IP-100,2013-06-20 01:13:00,
2013-06-19 21:18:00,58.1,47.0,29.71,NE,45,0.0,1.2,66,0.00,,,0.00,Rainwise IP-100,2013-06-20 01:18:00,
2013-06-19 21:23:00,57.9,47.5,29.71,NE,45,0.0,1.4,67,0.00,,,0.00,Rainwise IP-100,2013-06-20 01:23:00,
2013-06-19 21:28:00,57.6,47.5,29.71,West,270,1.6,2.8,68,0.00,,,0.00,Rainwise IP-100,2013-06-20 01:28:00,
2013-06-19 21:33:00,57.5,47.5,29.72,West,270,2.1,4.0,68,0.00,,,0.00,Rainwise IP-100,2013-06-20 01:33:00,
2013-06-19 21:38:00,57.8,47.5,29.72,NNW,337,0.0,3.0,67,0.00,,,0.00,Rainwise IP-100,2013-06-20 01:38:00,
2013-06-19 21:43:00,57.7,47.0,29.72,ENE,67,2.1,2.8,67,0.00,,,0.00,Rainwise IP-100,2013-06-20 01:43:00,
2013-06-19 21:48:00,57.2,47.0,29.72,ESE,112,0.0,2.6,69,0.00,,,0.00,Rainwise IP-100,2013-06-20 01:48:00,
2013-06-19 21:53:00,56.8,47.5,29.72,NNE,22,0.0,2.6,70,0.00,,,0.00,Rainwise IP-100,2013-06-20 01:53:00,
2013-06-19 21:58:00,56.3,47.5,29.72,WNW,292,0.0,2.3,71,0.00,,,0.00,Rainwise IP-100,2013-06-20 01:58:00,
2013-06-19 22:03:00,55.8,47.0,29.73,WNW,292,0.0,0.0,72,0.00,,,0.00,Rainwise IP-100,2013-06-20 02:03:00,
2013-06-19 22:08:00,55.3,47.0,29.73,NW,315,0.0,0.0,73,0.00,,,0.00,Rainwise IP-100,2013-06-20 02:08:00,
2013-06-19 22:13:00,54.8,47.5,29.74,NW,315,0.0,0.0,74,0.00,,,0.00,Rainwise IP-100,2013-06-20 02:13:00,
2013-06-19 22:19:00,54.5,47.0,29.73,NW,315,0.0,3.0,75,0.00,,,0.00,Rainwise IP-100,2013-06-20 02:19:00,
2013-06-19 22:24:00,54.4,47.5,29.74,NNW,337,0.0,2.6,76,0.00,,,0.00,Rainwise IP-100,2013-06-20 02:24:00,
2013-06-19 22:29:00,54.3,47.5,29.74,NNW,337,0.0,2.3,77,0.00,,,0.00,Rainwise IP-100,2013-06-20 02:29:00,
2013-06-19 22:34:00,54.1,47.0,29.73,NNW,337,0.0,1.6,77,0.00,,,0.00,Rainwise IP-100,2013-06-20 02:34:00,
2013-06-19 22:39:00,53.7,47.0,29.74,WNW,292,1.9,4.4,77,0.00,,,0.00,Rainwise IP-100,2013-06-20 02:39:00,
2013-06-19 22:44:00,53.6,47.0,29.74,WSW,247,0.0,3.0,78,0.00,,,0.00,Rainwise IP-100,2013-06-20 02:44:00,
2013-06-19 22:49:00,53.4,47.0,29.74,NNW,337,1.4,3.0,78,0.00,,,0.00,Rainwise IP-100,2013-06-20 02:49:00,
2013-06-19 22:54:00,53.0,47.0,29.75,NNE,22,0.0,1.4,79,0.00,,,0.00,Rainwise IP-100,2013-06-20 02:54:00,
2013-06-19 22:59:00,52.5,47.0,29.75,NNE,22,0.0,1.4,80,0.00,,,0.00,Rainwise IP-100,2013-06-20 02:59:00,
2013-06-19 23:04:00,52.0,47.0,29.75,NNE,22,0.0,1.2,82,0.00,,,0.00,Rainwise IP-100,2013-06-20 03:04:00,
2013-06-19 23:09:00,51.5,47.0,29.75,NNE,22,0.0,0.0,83,0.00,,,0.00,Rainwise IP-100,2013-06-20 03:09:00,
2013-06-19 23:14:00,51.2,47.0,29.75,NNE,22,0.0,0.0,84,0.00,,,0.00,Rainwise IP-100,2013-06-20 03:14:00,
2013-06-19 23:19:00,51.2,47.0,29.75,NNW,337,2.3,3.3,85,0.00,,,0.00,Rainwise IP-100,2013-06-20 03:19:00,
2013-06-19 23:24:00,51.2,47.0,29.76,NNW,337,0.0,2.8,85,0.00,,,0.00,Rainwise IP-100,2013-06-20 03:24:00,
2013-06-19 23:29:00,51.1,47.0,29.76,NW,315,1.6,3.7,85,0.00,,,0.00,Rainwise IP-100,2013-06-20 03:29:00,
2013-06-19 23:35:00,50.9,47.0,29.76,WNW,292,0.0,2.8,85,0.00,,,0.00,Rainwise IP-100,2013-06-20 03:35:00,
2013-06-19 23:40:00,50.8,47.0,29.77,NNW,337,1.2,3.3,85,0.00,,,0.00,Rainwise IP-100,2013-06-20 03:40:00,
2013-06-19 23:45:00,50.7,47.0,29.77,NNW,337,0.0,2.1,86,0.00,,,0.00,Rainwise IP-100,2013-06-20 03:45:00,
2013-06-19 23:50:00,50.4,47.0,29.77,NNW,337,0.0,0.0,86,0.00,,,0.00,Rainwise IP-100,2013-06-20 03:50:00,
2013-06-19 23:55:00,50.1,46.0,29.77,NNW,337,0.0,1.4,87,0.00,,,0.00,Rainwise IP-100,2013-06-20 03:55:00,